Regional Weather Roundup
Issued by NWS

Home | Current Version | Previous Version | Text Only | Print | Product List | Glossary On
Versions: 1 2 3 4 5 6 7 8 9 10 11 12 13 14 15 16 17 18 19 20 21 22 23 24 25 26 27 28 29 30 31 32 33 34 35 36 37 38 39 40 41 42 43 44 45 46 47 48 49 50
000
ASUS43 KDTX 292310
RWRMI
MICHIGAN HOURLY REGIONAL WEATHER ROUNDUP
NATIONAL WEATHER SERVICE DETROIT/PONTIAC MI
700 PM EDT SAT APR 29 2017

NOTE: "FAIR" INDICATES FEW OR NO CLOUDS BELOW 12,000 FEET WITH NO
SIGNIFICANT WEATHER AND/OR OBSTRUCTION TO VISIBILITY.

MIZ047>049-052>055-059>063-066>070-074>076-081>083-300000-
SOUTHEAST LOWER MICHIGAN

CITY           SKY/WX    TMP DP  RH WIND       PRES   REMARKS
ADRIAN         CLOUDY    47  40  76 E13       30.17F
ALMA           RAIN      48  37  66 E12G18    30.20F
ANN ARBOR      CLOUDY    49  37  63 NE12      30.19F
BAD AXE        CLOUDY    41  29  62 NE13G18   30.23F
CARO           RAIN      46  35  64 E5        30.27R
DETROIT CITY   CLOUDY    45  34  65 E8        30.23S
DETROIT        CLOUDY    48  36  63 E12       30.21F
FLINT          CLOUDY    48  38  68 E12       30.23R
GROSSE ILE     CLOUDY    45  32  60 NE16G22   30.20F
HILLSDALE      CLOUDY    46  39  76 E12G18    30.13F
HOWELL         CLOUDY    50  34  54 NE8       30.20R

CITY           SKY/WX    TMP DP  RH WIND       PRES   REMARKS
JACKSON        CLOUDY    51  38  60 E14       30.15F
LAMBERTVILLE   CLOUDY    45  35  68 E7G16     30.18F
LANSING        CLOUDY    50  39  66 NE14      30.19F
LAPEER         RAIN      47  35  62 E5        30.25R
MASON          CLOUDY    51  41  69 NE12      30.17F
MONROE         CLOUDY    46  36  69 E7G17     30.19F
MT. CLEMENS    CLOUDY    45  33  62 NE9       30.22F
PONTIAC        CLOUDY    48  34  58 E14       30.20F
PORT HOPE        N/A     42  34  73 NE15      30.23S
PORT HURON     CLOUDY    39  30  70 N5        30.27S
TRI CITIES     LGT RAIN  49  38  65 E12       30.25R
MIDLAND        FAIR      47  34  60 E14       30.24R
TROY           CLOUDY    47  31  51 NE14      30.23F
SAGINAW HB     DRIZZLE   48  34  57 E9        30.24R
$$
MIZ043>046-050>051-056>058-064>065-071>073-077>080-300000-
SOUTHWEST LOWER MICHIGAN

CITY           SKY/WX    TMP DP  RH WIND       PRES   REMARKS
BATTLE CREEK   CLOUDY    49  44  83 NE12      30.15R
BENTON HARBOR  CLOUDY    50  46  86 NE10      30.10F
BIG RAPIDS     CLOUDY    51  31  45 E7        30.19R
COLDWATER      CLOUDY    50  42  75 E7        30.14R
FREMONT        LGT RAIN  52  30  43 NE8       30.17F
HOLLAND        LGT RAIN  48  43  82 E7        30.19R
GRAND RAPIDS   LGT RAIN  48  46  93 E12       30.16F
IONIA          LGT RAIN  49  37  65 NE12      30.19R
KALAMAZOO      CLOUDY    50  42  74 NE7       30.14F
LUDINGTON      CLOUDY    47  31  54 NE9       30.20R
MARSHALL       CLOUDY    51  39  62 E9        30.15R
MOUNT PLEASANT CLOUDY    51  34  52 E9        30.21R
MUSKEGON       LGT RAIN  50  41  71 E8        30.18R
SOUTH HAVEN    LGT RAIN  47  46  95 NE8       30.12F
$$
MIZ016>042-300000-
NORTHERN LOWER MICHIGAN

CITY           SKY/WX    TMP DP  RH WIND       PRES   REMARKS
ALPENA         CLOUDY    49  29  46 N9        30.25F
BEAVER ISLAND  PTSUNNY   47  22  37 N9        30.29S
BELLAIRE       PTSUNNY   47  25  42 N8        30.25F
CADILLAC       CLOUDY    45  30  55 N10       30.19S
CHARLEVOIX     PTSUNNY   42  31  64 NW6       30.30S
FRANKFORT      CLOUDY    44  28  54 N9        30.22F
GAYLORD        CLOUDY    50  24  36 NE13      30.23S
GRAYLING       CLOUDY    50  26  39 NE14      30.23S
HARBOR SPRINGS PTSUNNY   49  28  43 NE8       30.26S
HOUGHTON LAKE  CLOUDY    51  28  41 NE12      30.20F
MANISTEE       CLOUDY    47  30  51 E9        30.22R
OSCODA         CLOUDY    48  28  45 NE12      30.23S
PELLSTON       CLOUDY    49  25  39 N12       30.28R
ROGERS CITY    PTSUNNY   47  29  49 NW7       30.27F
TRAVERSE CITY  CLOUDY    45  28  51 N10       30.22F
$$
MIZ007>008-015-300000-
EASTERN UPPER MICHIGAN

CITY           SKY/WX    TMP DP  RH WIND       PRES   REMARKS
KINROSS        CLOUDY    41  26  55 N16       30.29S
MACKINAC ISLAN CLOUDY    45  29  52 N10G17    30.27F
NEWBERRY       MOSUNNY   41  25  52 N12G17    30.31S
S. S. MARIE    CLOUDY    42  26  53 NW16      30.29S
MUNISING         N/A     38  28  67 NE14      30.35F WCI  30
$$
MIZ004>006-011>014-085-300000-
CENTRAL UPPER MICHIGAN

CITY           SKY/WX    TMP DP  RH WIND       PRES   REMARKS
MANISTIQUE     PTSUNNY   45  26  48 N16       30.30S
ESCANABA       CLOUDY    47  19  33 N10       30.30F
MENOMINEE      CLOUDY    45  28  51 NE14      30.26F
SAWYER-GWINN   SUNNY     37  23  56 N14       30.33F WCI  29
$$
MIZ001>003-009>011-084-300000-
WESTERN UPPER MICHIGAN

CITY           SKY/WX    TMP DP  RH WIND       PRES   REMARKS
IRON MOUNTAIN  PTSUNNY   49  16  26 NE10      30.27F
HOUGHTON       MOSUNNY   43  17  35 N8        30.36F
COPPER HARBOR    N/A     39  24  55 N7        30.38F WCI  34
IRONWOOD       CLOUDY    40  23  50 N8        30.33F WCI  34
$$

ABBREVIATIONS USED IN REMARKS
   TC - TEMPERATURE IN CELSIUS
  WCI - WIND CHILL INDEX
   HX - HEAT INDEX
  VSB - VISIBILITY





USA.gov is the U.S. government's official web portal to all federal, state and local government web resources and services.